www.pogodaiklimat.ru

Погода и климат >> Архив погоды >> Мьянма >> Минбу


ПОГОДА в Минбу

  • Прогноз погоды в Минбу
  • Монитор погоды в Минбу

АРХИВ ПОГОДЫ в Минбу

Время (UTC), дата Ветер
(напр.,м/с)
 
Видим.   Явления Облачность Т
(С)
Тd
(С)
f
(%)
Тe
(С)
Тes
(С)
Комфортность P
(гПа)
Po
(гПа)
Тmin
(С)
Tmax
(С)
R
(мм)
R24
(мм)
S
(см)
03 16.09 СВ 1 6000 м 3/1 300 м
[Sc Ci fib]
+31.0 +26.7 78 +48 +60 опасность
перегрева
1005.6 999.9
06 16.09 СВ 1 10 км 3/1 300 м
[Cu hum Ci fib]
+33.0 +27.5 73 +52 +72 опасность
перегрева
1004.5 998.8
09 16.09 СВ 1 10 км 4/3 300 м
[Cb cap Ci fib]
+36.0 +27.8 63 +56 +63 опасность
перегрева
1002.6 997.0
12 16.09 ЮВ 1 6000 м 5/4 300 м
[Cb cap Ci fib]
+31.0 +26.0 75 +46 +46 опасность
перегрева
1001.7 996.0 +36.5
15 16.09 ЮВ 1 5000 м 5/4 300 м
[Cb cap Ci fib]
+29.5 +26.3 83 +45 +45 опасность
перегрева
1002.7 996.9
00 17.09 СЗ 1 5000 м 5/4 300 м
[Cu Sc Ci fib]
+25.7 +24.6 94 +36 +36 очень
душно
1007.2 1001.3 +24.0
03 17.09 В 1 6000 м 4/4 300 м
[Cu Sc]
+30.0 +25.3 76 +44 +52 опасность
перегрева
1006.9 1001.1
06 17.09 СВ 1 10 км 4/4 300 м
[Cu Sc]
+33.3 +27.5 72 +53 +67 опасность
перегрева
1006.8 1001.1
09 17.09 ЮВ 1 10 км 5/3 300 м
[Cu Sc]
+35.0 +26.6 62 +52 +58 опасность
перегрева
1004.6 998.9
12 17.09 штиль 0 6000 м ясно +31.8 +26.5 74 +49 +49 опасность
перегрева
1004.3 998.6 +35.5
15 17.09 ЮВ 1 5000 м 3/3 300 м
[Cu Sc]
+30.3 +25.3 75 +44 +44 опасность
перегрева
1004.7 998.9
00 18.09 ЮВ 1 5000 м 8/5 300 м
[Cu Sc Ac trans]
+26.1 +24.6 91 +37 +37 очень
душно
1007.6 1001.7 +24.2
03 18.09 ЮВ 1 6000 м 3/0
[Ci fib]
+31.2 +25.4 71 +45 +58 опасность
перегрева
1008.7 1002.9
06 18.09 ЮВ 1 10 км 3/0
[Ci fib]
+33.3 +25.8 65 +49 +70 опасность
перегрева
1008.2 1002.5
09 18.09 ЮВ 1 10 км 4/3 300 м
[Cu Sc Ci fib]
+35.4 +26.6 61 +53 +59 опасность
перегрева
1005.6 999.9
12 18.09 штиль 0 6000 м 8/5 300 м
[Cu Sc Ac trans Ci fib]
+27.0 +27.0 100 +42 +42 опасность
перегрева
1006.4 1000.6 +36.2 8
15 18.09 ЮВ 1 5000 м 8/5 300 м
[Cu Sc Ac trans]
+27.0 +25.6 92 +40 +40 очень
душно
1006.7 1000.9
00 19.09 штиль 0 5000 м 4/1 300 м
[Sc Ci fib]
+26.0 +25.3 96 +38 +38 очень
душно
1007.5 1001.6 +24.0
03 19.09 штиль 0 6000 м 4/1 300 м
[Sc Ci fib]
+30.0 +25.9 79 +45 +58 опасность
перегрева
1008.7 1002.9
06 19.09 СВ 1 10 км 4/1 300 м
[Cu hum Ci fib]
+33.0 +27.5 73 +52 +71 опасность
перегрева
1007.8 1002.1
09 19.09 штиль 0 10 км 8/5 300 м
[Cb cap Ci fib]
+34.0 +28.8 74 +57 +62 опасность
перегрева
1006.8 1001.1
12 19.09 штиль 0 6000 м гроза без осадков {морось} 9/5 300 м
[Cb cap Ac trans Ci fib]
+27.5 +26.2 93 +42 +42 опасность
перегрева
1005.5 999.7 +34.5 1
15 19.09 штиль 0 5000 м 6/5 300 м
[Cb cap Ci fib]
+27.0 +26.0 94 +40 +40 очень
душно
1006.7 1000.9
00 20.09 штиль 0 5000 м 3/1 300 м
[Sc Ci fib]
+25.5 +24.8 96 +36 +36 очень
душно
1006.5 1000.6 +23.0
03 20.09 штиль 0 6000 м 3/1 300 м
[Sc Ci fib]
+30.5 +26.0 77 +46 +59 опасность
перегрева
1008.0 1002.2
06 20.09 ЮВ 1 10 км 3/1 300 м
[Cu hum Ci fib]
+33.0 +27.5 73 +52 +72 опасность
перегрева
1006.6 1000.9
09 20.09 СВ 2 10 км 6/4 300 м
[Cu Sc Ci fib]
+31.8 +26.5 74 +49 +53 опасность
перегрева
1005.9 1000.2
12 20.09 ЮВ 1 6000 м 6/4 300 м
[Cu Sc Ac trans Ci fib]
+29.0 +25.9 83 +43 +43 опасность
перегрева
1005.7 999.9 +34.0
15 20.09 штиль 0 5000 м 4/3 300 м
[Cu Sc Ci fib]
+28.0 +25.0 84 +40 +40 очень
душно
1007.0 1001.2
00 21.09 СВ 1 5000 м 8/5 300 м
[Cu Sc Ac trans]
+25.0 +23.3 90 +33 +33 очень
душно
1007.3 1001.4 +23.0
03 21.09 ЮВ 1 6000 м 6/4 300 м
[Cu Sc Ac trans]
+29.0 +25.9 83 +43 +50 опасность
перегрева
1009.0 1003.2
09 21.09 ЮВ 1 10 км 8/5 300 м
[Cu Sc Ac trans]
+34.0 +28.8 74 +57 +60 опасность
перегрева
1004.4 998.7
12 21.09 штиль 0 6000 м 8/5 300 м
[Cu Sc Ac trans]
+30.4 +25.3 74 +44 +44 опасность
перегрева
1004.5 998.7 +35.0
15 21.09 ЮВ 1 5000 м 8/5 300 м
[Cu Sc Ac trans]
+28.6 +25.9 85 +43 +43 опасность
перегрева
1005.0 999.2
00 22.09 СЗ 1 5000 м 9/6 300 м
[Cu Sc Ac As]
+24.0 +24.0 100 +33 +33 очень
душно
1008.7 1002.8 +22.2 10
03 22.09 штиль 0 6000 м 8/5 300 м
[Cu Sc Ac trans]
+27.2 +24.0 83 +38 +43 очень
душно
1009.9 1004.1
06 22.09 В 1 10 км 8/5 300 м
[Cu Sc Ac trans]
+29.0 +25.9 83 +43 +50 опасность
перегрева
1009.9 1004.1
09 22.09 ЮВ 1 10 км 4/3 300 м
[Cu Sc Ci fib]
+32.0 +26.5 73 +49 +55 опасность
перегрева
1007.5 1001.8
12 22.09 ЮВ 1 6000 м 6/4 300 м
[Cu Sc Ac trans Ci fib]
+31.0 +28.2 85 +52 +52 опасность
перегрева
1008.3 1002.5 +33.3
15 22.09 ЮВ 1 5000 м 8/5 300 м
[Cu Sc Ac trans]
+30.0 +26.6 82 +46 +46 опасность
перегрева
1008.6 1002.8
00 23.09 штиль 0 5000 м {гроза, дождь} 9/5 300 м
[Cu Sc Ac trans Ci fib]
+25.0 +25.0 100 +36 +36 очень
душно
1011.0 1005.1 +22.2 36

 

Местоположение метеостанции Минбу (Мьянма): широта 20.17 долгота 94.88 высота над уровнем моря 51 м.

В архиве по умолчанию представлена погода в Минбу за последнюю неделю. Архивные данные за месяц целиком и за предыдущие месяцы, начиная с января 2011 года, Вы можете получить, выбрав интересующий диапазон дат из раскрывающегося списка и нажав кнопку "Ввод!".


*Определитесь, кто Вы:
робот инопланетянин человек

Внимание! Время в таблицах - всемирное. Для получения местного времени необходимо прибавить поправку, которая равна 6.5 ч.

Смотрите также архив погоды в соседних городах и на ближайших метеорологических станциях:

Погода в Магуэе (Мьянма) (8 км)
Погода в Чау (Мьянма) (79 км)
Погода в Ньянг-У (Мьянма) (115 км)
Погода в Мейтхиле (Мьянма) (123 км)
Погода в Пьинмане (Мьянма) (149 км)
Погода в Проме (Мьянма) (156 км)
Погода в Кяокпю (Мьянма) (162 км)
Погода в Миндате (Мьянма) (166 км)
Погода в Манаунге (Мьянма) (190 км)
Погода в Тандве (Мьянма) (197 км)

Пояснения к столбцам:

Ветер - указаны скорость ветра в м/с - средняя за 10 мин, порывы в срок и между сроками (в фигурных скобках) и направление, откуда дует ветер: С - северный, СВ - северо-восточный, В - восточный, ЮВ - юго-восточный, Ю - южный, ЮЗ - юго-западный, З - западный, СЗ - северо-западный.
Видимость - горизонтальная дальность видимости в метрах или километрах. При видимости от 1 до 10 км при отсутствии осадков обычно наблюдается дымка, при ухудшении видимости до 1 км и менее - туман. В сухую погоду видимость может ухудшаться дымом, пылью или мглою.
Явления - указаны атмосферные явления, наблюдавшиеся в срок или в последний час перед сроком; фигурными скобками обозначены явления, наблюдавшиеся между сроками (за 1-3 часа до срока); квадратными скобками обозначены град или гололедные отложения с указанием их диаметра в мм.
Облачность - указаны через наклонную черту общая и нижняя облачность в баллах и высота нижней границы облаков в метрах; квадратными скобками обозначены формы облаков: Ci - перистые, Cs - перисто-слоистые, Cc - перисто-кучевые, Ac - высококучевые, As - высокослоистые, Sc - слоисто-кучевые, Ns - слоисто-дождевые, Cu - кучевые, Cb - кучево-дождевые. Подробнее классификацию облаков см. в Атласе облаков (PDF).
T - Температура воздуха - температура, измеренная на высоте 2 м над землей.
Td - Температура точки росы - температура, при понижении до которой содержащийся в воздухе водяной пар достигнет насыщения.
f - Относительная влажность воздуха - влажноcть воздуха, измеренная на высоте 2 м над землей.
Te - Эффективная температура - температура, которую ощущает одетый по сезону человек в тени. Характеристика душности погоды. При расчете учитывается влияние влажности воздуха и скорости ветра на теплоощущения человека.
Tes - Эффективная температура на солнце - температура, которую ощущает человек, с поправкой на солнечный нагрев. Характеристика знойности погоды. Зависит от высоты солнца над горизонтом, облачности и скорости ветра. Ночью, в пасмурную погоду, а также при ветре 12 м/с и более поправка равна нулю.
P - Атмосферное давление - приведенное к уровню моря атмосферное давление.
Po - Атмосферное давление - измеренное на уровне метеостанции атмосферное давление.
Tmin - Минимальная температура - минимум температуры воздуха на высоте 2 м над землей.
Tmax - Максимальная температура - максимум температуры воздуха на высоте 2 м над землей.
R - Количество осадков - Количество выпавших осадков за период времени, мм. При наведении курсора мыши на число - период времени, за который выпало указанное количество осадков.
R24 - Количество осадков - Количество выпавших осадков за 24 часа, мм.
S - Снежный покров - Высота снежного покрова, см. При наведении курсора мыши на число - состояние снежного покрова и степень покрытия местности в баллах.